| time (UTC) | temp F | wind direction | speed MPH | gust MPH | rain 1hr in | rain 24hr in | rain mn in | humidity % | barometer mb |
| 20260506040003 | 62 | 360 | 8.0 | 14.0 | 0.00 | 0.00 | 0.00 | 77 | 1010.2 |
| 20260506035503 | 62 | 349 | 7.0 | 13.0 | 0.00 | 0.00 | 0.00 | 77 | 1010.3 |
| 20260506035003 | 62 | 330 | 7.0 | 13.0 | 0.00 | 0.00 | 0.00 | 77 | 1010.1 |
| 20260506034504 | 62 | 30 | 5.0 | 15.0 | 0.00 | 0.00 | 0.00 | 77 | 1009.9 |
| 20260506034004 | 62 | 335 | 8.0 | 15.0 | 0.00 | 0.00 | 0.00 | 77 | 1009.9 |
| 20260506033504 | 63 | 360 | 4.0 | 11.0 | 0.00 | 0.00 | 0.00 | 77 | 1009.8 |
| 20260506033008 | 63 | 20 | 4.0 | 10.0 | 0.00 | 0.00 | 0.00 | 76 | 1009.7 |
| 20260506032503 | 63 | 323 | 5.0 | 13.0 | 0.00 | 0.00 | 0.00 | 77 | 1009.5 |
| 20260506032007 | 63 | 360 | 6.0 | 15.0 | 0.00 | 0.00 | 0.00 | 76 | 1009.3 |
| 20260506031523 | 63 | 38 | 7.0 | 15.0 | 0.00 | 0.00 | 0.00 | 75 | 1009.3 |
| 20260506031003 | 63 | 11 | 7.0 | 15.0 | 0.00 | 0.00 | 0.00 | 75 | 1009.4 |
| 20260506030504 | 64 | 348 | 7.0 | 15.0 | 0.00 | 0.00 | 0.00 | 75 | 1009.1 |
| 20260506030022 | 65 | 9 | 8.0 | 15.0 | 0.00 | 0.00 | 0.00 | 75 | 1009.2 |
| 20260506025508 | 65 | 346 | 5.0 | 12.0 | 0.00 | 0.00 | 0.00 | 75 | 1009.0 |
| 20260506025006 | 65 | 35 | 5.0 | 11.0 | 0.00 | 0.00 | 0.00 | 74 | 1009.0 |
| 20260506024505 | 65 | 18 | 4.0 | 11.0 | 0.00 | 0.00 | 0.00 | 74 | 1008.9 |
| 20260506024004 | 65 | 321 | 4.0 | 12.0 | 0.00 | 0.00 | 0.00 | 74 | 1008.7 |
| 20260506023505 | 65 | 31 | 5.0 | 12.0 | 0.00 | 0.00 | 0.00 | 74 | 1008.6 |
| 20260506023009 | 65 | 352 | 7.0 | 12.0 | 0.00 | 0.00 | 0.00 | 74 | 1008.6 |
| 20260506022505 | 66 | 352 | 4.0 | 12.0 | 0.00 | 0.00 | 0.00 | 73 | 1008.5 |
| 20260506022006 | 66 | 352 | 6.0 | 12.0 | 0.00 | 0.00 | 0.00 | 73 | 1008.5 |
| 20260506021507 | 66 | 27 | 8.0 | 12.0 | 0.00 | 0.00 | 0.00 | 73 | 1008.3 |
| 20260506021008 | 66 | 9 | 6.0 | 11.0 | 0.00 | 0.00 | 0.00 | 72 | 1008.2 |
| 20260506020510 | 66 | 339 | 5.0 | 11.0 | 0.00 | 0.00 | 0.00 | 72 | 1008.1 |
| 20260506020021 | 66 | 336 | 5.0 | 13.0 | 0.00 | 0.00 | 0.00 | 72 | 1007.8 |
| 20260506015504 | 66 | 352 | 7.0 | 13.0 | 0.00 | 0.00 | 0.00 | 72 | 1007.9 |
| 20260506015005 | 67 | 24 | 3.0 | 10.0 | 0.00 | 0.00 | 0.00 | 72 | 1007.9 |
| 20260506014525 | 67 | 337 | 4.0 | 10.0 | 0.00 | 0.00 | 0.00 | 72 | 1007.6 |
| 20260506014003 | 67 | 336 | 5.0 | 10.0 | 0.00 | 0.00 | 0.00 | 71 | 1007.4 |
| 20260506013503 | 67 | 352 | 5.0 | 10.0 | 0.00 | 0.00 | 0.00 | 70 | 1007.3 |
| 20260506013007 | 67 | 352 | 6.0 | 11.0 | 0.00 | 0.00 | 0.00 | 70 | 1007.4 |
| 20260506012506 | 67 | 31 | 4.0 | 11.0 | 0.00 | 0.00 | 0.00 | 71 | 1007.4 |
| 20260506012008 | 68 | 342 | 5.0 | 10.0 | 0.00 | 0.00 | 0.00 | 71 | 1007.2 |
| 20260506011511 | 68 | 32 | 4.0 | 8.0 | 0.00 | 0.00 | 0.00 | 71 | 1007.0 |
| 20260506011007 | 69 | 24 | 3.0 | 10.0 | 0.00 | 0.00 | 0.00 | 71 | 1007.1 |
| 20260506010502 | 69 | 346 | 4.0 | 10.0 | 0.00 | 0.00 | 0.00 | 70 | 1006.8 |
| 20260506010015 | 69 | 17 | 5.0 | 14.0 | 0.00 | 0.00 | 0.00 | 70 | 1006.7 |
| 20260506005506 | 70 | 325 | 6.0 | 15.0 | 0.00 | 0.00 | 0.00 | 70 | 1006.4 |
| 20260506005015 | 70 | 348 | 6.0 | 15.0 | 0.00 | 0.00 | 0.00 | 70 | 1006.3 |
| 20260506004513 | 70 | 46 | 7.0 | 13.0 | 0.00 | 0.00 | 0.00 | 70 | 1006.6 |
| 20260506004006 | 70 | 343 | 5.0 | 11.0 | 0.00 | 0.00 | 0.00 | 71 | 1006.6 |
| 20260506003513 | 71 | 360 | 5.0 | 15.0 | 0.00 | 0.00 | 0.00 | 70 | 1006.2 |
| 20260506003004 | 71 | 11 | 6.0 | 15.0 | 0.00 | 0.00 | 0.00 | 69 | 1005.8 |
| 20260506002502 | 71 | 344 | 10.0 | 15.0 | 0.00 | 0.00 | 0.00 | 69 | 1005.8 |
| 20260506002007 | 71 | 350 | 11.0 | 15.0 | 0.00 | 0.00 | 0.00 | 68 | 1005.9 |
| 20260506001506 | 72 | 350 | 8.0 | 15.0 | 0.00 | 0.00 | 0.00 | 68 | 1006.0 |
| 20260506001004 | 72 | 319 | 9.0 | 15.0 | 0.00 | 0.00 | 0.00 | 68 | 1006.0 |
| 20260506000507 | 73 | 328 | 7.0 | 14.0 | 0.00 | 0.00 | 0.00 | 68 | 1006.0 |
| 20260506000018 | 73 | 9 | 7.0 | 15.0 | 0.00 | 0.00 | 0.00 | 68 | 1005.9 |
| 20260505235514 | 73 | 337 | 9.0 | 15.0 | 0.00 | 0.00 | 0.00 | 66 | 1005.9 |
| 20260505235004 | 74 | 316 | 8.0 | 14.0 | 0.00 | 0.00 | 0.00 | 66 | 1005.9 |
| 20260505234519 | 74 | 360 | 7.0 | 13.0 | 0.00 | 0.00 | 0.00 | 66 | 1005.8 |
| 20260505234009 | 75 | 340 | 8.0 | 13.0 | 0.00 | 0.00 | 0.00 | 66 | 1005.9 |
| 20260505233506 | 75 | 343 | 6.0 | 14.0 | 0.00 | 0.00 | 0.00 | 65 | 1005.8 |
| 20260505233015 | 75 | 325 | 7.0 | 14.0 | 0.00 | 0.00 | 0.00 | 65 | 1005.7 |
| 20260505232506 | 75 | 331 | 8.0 | 13.0 | 0.00 | 0.00 | 0.00 | 64 | 1005.7 |
| 20260505232012 | 75 | 332 | 9.0 | 13.0 | 0.00 | 0.00 | 0.00 | 64 | 1005.5 |
| 20260505231507 | 76 | 326 | 9.0 | 14.0 | 0.00 | 0.00 | 0.00 | 65 | 1005.8 |
| 20260505231004 | 76 | 326 | 10.0 | 16.0 | 0.00 | 0.00 | 0.00 | 65 | 1005.7 |
| 20260505230509 | 76 | 331 | 11.0 | 16.0 | 0.00 | 0.00 | 0.00 | 63 | 1005.5 |
| 20260505230009 | 77 | 352 | 10.0 | 16.0 | 0.00 | 0.00 | 0.00 | 63 | 1005.4 |
| 20260505225507 | 77 | 319 | 11.0 | 16.0 | 0.00 | 0.00 | 0.00 | 63 | 1005.4 |
| 20260505225006 | 77 | 327 | 9.0 | 15.0 | 0.00 | 0.00 | 0.00 | 64 | 1005.5 |
| 20260505224531 | 78 | 317 | 9.0 | 13.0 | 0.00 | 0.00 | 0.00 | 63 | 1005.4 |
| 20260505224012 | 78 | 321 | 9.0 | 14.0 | 0.00 | 0.00 | 0.00 | 64 | 1005.1 |
| 20260505223514 | 78 | 308 | 7.0 | 14.0 | 0.00 | 0.00 | 0.00 | 63 | 1004.9 |
| 20260505223031 | 78 | 325 | 9.0 | 13.0 | 0.00 | 0.00 | 0.00 | 65 | 1004.9 |
| 20260505222502 | 78 | 316 | 10.0 | 16.0 | 0.00 | 0.00 | 0.00 | 63 | 1005.1 |
| 20260505222010 | 79 | 319 | 12.0 | 16.0 | 0.00 | 0.00 | 0.00 | 62 | 1005.1 |
| 20260505221522 | 80 | 316 | 10.0 | 16.0 | 0.00 | 0.00 | 0.00 | 61 | 1004.9 |
| 20260505221009 | 81 | 346 | 10.0 | 17.0 | 0.00 | 0.00 | 0.00 | 61 | 1004.8 |
| 20260505220505 | 82 | 327 | 11.0 | 17.0 | 0.00 | 0.00 | 0.00 | 60 | 1004.9 |
| 20260505220020 | 83 | 351 | 9.0 | 14.0 | 0.00 | 0.00 | 0.00 | 57 | 1004.8 |
| 20260505215510 | 84 | 331 | 10.0 | 13.0 | 0.00 | 0.00 | 0.00 | 56 | 1004.7 |
| 20260505215009 | 83 | 331 | 8.0 | 13.0 | 0.00 | 0.00 | 0.00 | 54 | 1004.6 |
| 20260505214519 | 84 | 314 | 10.0 | 14.0 | 0.00 | 0.00 | 0.00 | 52 | 1004.6 |
| 20260505214008 | 83 | 319 | 10.0 | 14.0 | 0.00 | 0.00 | 0.00 | 50 | 1004.8 |
| 20260505213507 | 85 | 320 | 10.0 | 14.0 | 0.00 | 0.00 | 0.00 | 49 | 1005.0 |
| 20260505213011 | 85 | 317 | 10.0 | 14.0 | 0.00 | 0.00 | 0.00 | 48 | 1004.9 |
| 20260505212507 | 85 | 9 | 9.0 | 13.0 | 0.00 | 0.00 | 0.00 | 50 | 1004.7 |
| 20260505212012 | 84 | 334 | 10.0 | 15.0 | 0.00 | 0.00 | 0.00 | 49 | 1004.6 |
| 20260505211525 | 85 | 339 | 10.0 | 15.0 | 0.00 | 0.00 | 0.00 | 49 | 1004.7 |
| 20260505211009 | 85 | 344 | 10.0 | 14.0 | 0.00 | 0.00 | 0.00 | 51 | 1004.8 |
| 20260505210510 | 86 | 329 | 10.0 | 15.0 | 0.00 | 0.00 | 0.00 | 53 | 1004.9 |
| 20260505210030 | 86 | 333 | 10.0 | 19.0 | 0.00 | 0.00 | 0.00 | 51 | 1005.0 |
| 20260505205507 | 87 | 327 | 12.0 | 19.0 | 0.00 | 0.00 | 0.00 | 47 | 1004.9 |
| 20260505205008 | 88 | 322 | 6.0 | 14.0 | 0.00 | 0.00 | 0.00 | 53 | 1004.9 |
| 20260505204520 | 88 | 254 | 8.0 | 13.0 | 0.00 | 0.00 | 0.00 | 53 | 1004.8 |
| 20260505204006 | 88 | 214 | 7.0 | 11.0 | 0.00 | 0.00 | 0.00 | 57 | 1004.9 |
| 20260505203507 | 88 | 218 | 6.0 | 11.0 | 0.00 | 0.00 | 0.00 | 54 | 1004.8 |
| 20260505203017 | 88 | 213 | 7.0 | 13.0 | 0.00 | 0.00 | 0.00 | 52 | 1004.9 |
| 20260505202508 | 88 | 235 | 8.0 | 13.0 | 0.00 | 0.00 | 0.00 | 55 | 1005.0 |
| 20260505202009 | 88 | 223 | 5.0 | 13.0 | 0.00 | 0.00 | 0.00 | 57 | 1004.9 |
| 20260505201518 | 87 | 207 | 6.0 | 13.0 | 0.00 | 0.00 | 0.00 | 57 | 1004.9 |
| 20260505201009 | 87 | 271 | 7.0 | 14.0 | 0.00 | 0.00 | 0.00 | 54 | 1005.1 |
| 20260505200512 | 87 | 212 | 7.0 | 18.0 | 0.00 | 0.00 | 0.00 | 54 | 1005.1 |
| 20260505200014 | 87 | 261 | 8.0 | 18.0 | 0.00 | 0.00 | 0.00 | 55 | 1005.1 |
| 20260505195511 | 87 | 254 | 10.0 | 15.0 | 0.00 | 0.00 | 0.00 | 56 | 1005.2 |
| 20260505195012 | 87 | 254 | 9.0 | 15.0 | 0.00 | 0.00 | 0.00 | 55 | 1005.2 |
| 20260505194512 | 87 | 236 | 7.0 | 16.0 | 0.00 | 0.00 | 0.00 | 58 | 1005.3 |
| 20260505194005 | 86 | 240 | 9.0 | 17.0 | 0.00 | 0.00 | 0.00 | 58 | 1005.3 |
| 20260505193507 | 86 | 257 | 8.0 | 17.0 | 0.00 | 0.00 | 0.00 | 58 | 1005.2 |
| 20260505193035 | 86 | 298 | 8.0 | 15.0 | 0.00 | 0.00 | 0.00 | 58 | 1005.2 |
| 20260505192507 | 86 | 241 | 9.0 | 15.0 | 0.00 | 0.00 | 0.00 | 59 | 1005.2 |
| 20260505192010 | 85 | 223 | 10.0 | 18.0 | 0.00 | 0.00 | 0.00 | 60 | 1005.3 |
| 20260505191522 | 85 | 230 | 10.0 | 18.0 | 0.00 | 0.00 | 0.00 | 61 | 1005.0 |
| 20260505191014 | 85 | 259 | 8.0 | 15.0 | 0.00 | 0.00 | 0.00 | 64 | 1005.1 |
| 20260505190507 | 85 | 234 | 8.0 | 16.0 | 0.00 | 0.00 | 0.00 | 63 | 1005.2 |
| 20260505190032 | 85 | 221 | 10.0 | 16.0 | 0.00 | 0.00 | 0.00 | 63 | 1005.1 |
| 20260505185513 | 85 | 224 | 6.0 | 13.0 | 0.00 | 0.00 | 0.00 | 66 | 1005.1 |
| 20260505185006 | 84 | 211 | 7.0 | 14.0 | 0.00 | 0.00 | 0.00 | 65 | 1005.1 |
| 20260505184525 | 84 | 216 | 9.0 | 14.0 | 0.00 | 0.00 | 0.00 | 64 | 1005.0 |
| 20260505184010 | 84 | 223 | 8.0 | 14.0 | 0.00 | 0.00 | 0.00 | 65 | 1005.2 |
| 20260505183511 | 83 | 199 | 6.0 | 16.0 | 0.00 | 0.00 | 0.00 | 67 | 1005.1 |
| 20260505183031 | 82 | 234 | 9.0 | 16.0 | 0.00 | 0.00 | 0.00 | 66 | 1005.3 |
| 20260505182505 | 82 | 238 | 9.0 | 14.0 | 0.00 | 0.00 | 0.00 | 66 | 1005.3 |
| 20260505182010 | 82 | 211 | 9.0 | 16.0 | 0.00 | 0.00 | 0.00 | 69 | 1005.4 |
| 20260505181517 | 82 | 210 | 9.0 | 16.0 | 0.00 | 0.00 | 0.00 | 68 | 1005.4 |
| 20260505181011 | 82 | 221 | 11.0 | 15.0 | 0.00 | 0.00 | 0.00 | 66 | 1005.4 |
| 20260505180511 | 82 | 202 | 10.0 | 21.0 | 0.00 | 0.00 | 0.00 | 67 | 1005.4 |
| 20260505180033 | 81 | 217 | 10.0 | 21.0 | 0.00 | 0.00 | 0.00 | 68 | 1005.4 |
| 20260505175507 | 82 | 192 | 11.0 | 17.0 | 0.00 | 0.00 | 0.00 | 67 | 1005.4 |
| 20260505175013 | 82 | 203 | 7.0 | 16.0 | 0.00 | 0.00 | 0.00 | 68 | 1005.5 |
| 20260505174531 | 82 | 199 | 9.0 | 21.0 | 0.00 | 0.00 | 0.00 | 69 | 1005.4 |
| 20260505174007 | 82 | 260 | 11.0 | 21.0 | 0.00 | 0.00 | 0.00 | 67 | 1005.3 |
| 20260505173509 | 82 | 201 | 10.0 | 19.0 | 0.00 | 0.00 | 0.00 | 68 | 1005.3 |
| 20260505173037 | 82 | 190 | 11.0 | 19.0 | 0.00 | 0.00 | 0.00 | 67 | 1005.2 |
| 20260505172511 | 81 | 227 | 10.0 | 19.0 | 0.00 | 0.00 | 0.00 | 69 | 1005.4 |
| 20260505172021 | 81 | 207 | 11.0 | 19.0 | 0.00 | 0.00 | 0.00 | 69 | 1005.2 |
| 20260505171527 | 81 | 198 | 12.0 | 17.0 | 0.00 | 0.00 | 0.00 | 69 | 1005.2 |
| 20260505171010 | 80 | 199 | 12.0 | 20.0 | 0.00 | 0.00 | 0.00 | 70 | 1005.3 |
| 20260505170514 | 80 | 220 | 11.0 | 21.0 | 0.00 | 0.00 | 0.00 | 70 | 1005.3 |
| 20260505170021 | 80 | 208 | 14.0 | 19.0 | 0.00 | 0.00 | 0.00 | 69 | 1005.2 |
| 20260505165506 | 80 | 209 | 10.0 | 20.0 | 0.00 | 0.00 | 0.00 | 71 | 1005.4 |
| 20260505165010 | 80 | 234 | 13.0 | 20.0 | 0.00 | 0.00 | 0.00 | 71 | 1005.3 |
| 20260505164530 | 79 | 214 | 11.0 | 16.0 | 0.00 | 0.00 | 0.00 | 74 | 1005.4 |
| 20260505164010 | 79 | 212 | 11.0 | 15.0 | 0.00 | 0.00 | 0.00 | 73 | 1005.4 |
| 20260505163510 | 78 | 221 | 10.0 | 17.0 | 0.00 | 0.00 | 0.00 | 74 | 1005.4 |
| 20260505163027 | 78 | 192 | 11.0 | 17.0 | 0.00 | 0.00 | 0.00 | 73 | 1005.4 |
| 20260505162509 | 78 | 215 | 11.0 | 17.0 | 0.00 | 0.00 | 0.00 | 74 | 1005.4 |
| 20260505162016 | 78 | 167 | 13.0 | 19.0 | 0.00 | 0.00 | 0.00 | 74 | 1005.3 |
| 20260505161528 | 78 | 234 | 13.0 | 21.0 | 0.00 | 0.00 | 0.00 | 74 | 1005.2 |
| 20260505161011 | 78 | 171 | 14.0 | 21.0 | 0.00 | 0.00 | 0.00 | 72 | 1005.2 |
| 20260505160506 | 79 | 231 | 9.0 | 14.0 | 0.00 | 0.00 | 0.00 | 74 | 1005.1 |
| 20260505153029 | 75 | 178 | 8.0 | 15.0 | 0.00 | 0.00 | 0.00 | 79 | 1005.0 |
| 20260505152510 | 75 | 227 | 7.0 | 18.0 | 0.00 | 0.00 | 0.00 | 79 | 1005.1 |
| 20260505152018 | 75 | 243 | 12.0 | 20.0 | 0.00 | 0.00 | 0.00 | 78 | 1005.0 |
| 20260505151521 | 75 | 191 | 8.0 | 20.0 | 0.00 | 0.00 | 0.00 | 79 | 1004.9 |
| 20260505151008 | 75 | 223 | 11.0 | 20.0 | 0.00 | 0.00 | 0.00 | 77 | 1004.9 |
| 20260505150517 | 75 | 210 | 11.0 | 18.0 | 0.00 | 0.00 | 0.00 | 78 | 1004.9 |
| 20260505140519 | 72 | 193 | 14.0 | 22.0 | 0.00 | 0.00 | 0.00 | 82 | 1004.6 |
| 20260505125013 | 69 | 211 | 9.0 | 16.0 | 0.00 | 0.00 | 0.00 | 86 | 1004.6 |
| 20260505124530 | 69 | 209 | 8.0 | 16.0 | 0.00 | 0.00 | 0.00 | 86 | 1004.6 |
| 20260505124011 | 69 | 198 | 9.0 | 18.0 | 0.00 | 0.00 | 0.00 | 87 | 1004.5 |
| 20260505123513 | 69 | 173 | 11.0 | 18.0 | 0.00 | 0.00 | 0.00 | 87 | 1004.2 |
| 20260505123039 | 69 | 204 | 10.0 | 17.0 | 0.00 | 0.00 | 0.00 | 87 | 1004.2 |
| 20260505122511 | 69 | 188 | 10.0 | 17.0 | 0.00 | 0.00 | 0.00 | 87 | 1004.2 |
| 20260505122010 | 69 | 224 | 10.0 | 17.0 | 0.00 | 0.00 | 0.00 | 87 | 1004.1 |
| 20260505121533 | 69 | 192 | 9.0 | 16.0 | 0.00 | 0.00 | 0.00 | 87 | 1004.0 |
| 20260505121010 | 69 | 188 | 9.0 | 16.0 | 0.00 | 0.00 | 0.00 | 87 | 1004.0 |
| 20260505120510 | 68 | 196 | 9.0 | 16.0 | 0.00 | 0.00 | 0.00 | 88 | 1004.0 |
| 20260505120036 | 68 | 202 | 10.0 | 15.0 | 0.00 | 0.00 | 0.00 | 88 | 1003.9 |
| 20260505115512 | 68 | 203 | 8.0 | 15.0 | 0.00 | 0.00 | 0.00 | 88 | 1003.9 |
| 20260505115011 | 68 | 207 | 10.0 | 15.0 | 0.00 | 0.00 | 0.00 | 88 | 1004.0 |
| 20260505114539 | 68 | 175 | 10.0 | 14.0 | 0.00 | 0.00 | 0.00 | 88 | 1003.9 |
| 20260505114010 | 68 | 197 | 9.0 | 17.0 | 0.00 | 0.00 | 0.00 | 88 | 1003.9 |
| 20260505113510 | 68 | 188 | 11.0 | 17.0 | 0.00 | 0.00 | 0.00 | 88 | 1003.9 |
| 20260505113028 | 68 | 160 | 7.0 | 12.0 | 0.00 | 0.00 | 0.00 | 88 | 1003.8 |
| 20260505112510 | 68 | 194 | 6.0 | 12.0 | 0.00 | 0.00 | 0.00 | 87 | 1003.8 |
| 20260505112011 | 68 | 179 | 9.0 | 16.0 | 0.00 | 0.00 | 0.00 | 88 | 1003.7 |
| 20260505111525 | 68 | 187 | 9.0 | 14.0 | 0.00 | 0.00 | 0.00 | 88 | 1003.7 |
| 20260505111011 | 68 | 213 | 8.0 | 14.0 | 0.00 | 0.00 | 0.00 | 87 | 1003.7 |
| 20260505110511 | 68 | 200 | 9.0 | 14.0 | 0.00 | 0.00 | 0.00 | 87 | 1003.7 |
| 20260505102009 | 68 | 189 | 8.0 | 15.0 | 0.00 | 0.00 | 0.00 | 87 | 1003.6 |
| 20260505101520 | 68 | 175 | 9.0 | 14.0 | 0.00 | 0.00 | 0.00 | 87 | 1003.6 |
| 20260505101006 | 68 | 194 | 9.0 | 16.0 | 0.00 | 0.00 | 0.00 | 86 | 1003.6 |
| 20260505100507 | 68 | 155 | 7.0 | 16.0 | 0.00 | 0.00 | 0.00 | 86 | 1003.6 |
| 20260505100028 | 69 | 171 | 10.0 | 15.0 | 0.00 | 0.00 | 0.00 | 86 | 1003.5 |
| 20260505095507 | 68 | 178 | 8.0 | 15.0 | 0.00 | 0.00 | 0.00 | 86 | 1003.6 |
| 20260505095004 | 69 | 208 | 8.0 | 17.0 | 0.00 | 0.00 | 0.00 | 86 | 1003.6 |
| 20260505094513 | 69 | 184 | 10.0 | 17.0 | 0.00 | 0.00 | 0.00 | 86 | 1003.7 |
| 20260505094005 | 69 | 198 | 8.0 | 19.0 | 0.00 | 0.00 | 0.00 | 86 | 1003.6 |
| 20260505093509 | 69 | 186 | 11.0 | 19.0 | 0.00 | 0.00 | 0.00 | 85 | 1003.5 |
| 20260505093015 | 69 | 194 | 7.0 | 18.0 | 0.00 | 0.00 | 0.00 | 85 | 1003.6 |
| 20260505092507 | 69 | 211 | 8.0 | 18.0 | 0.00 | 0.00 | 0.00 | 85 | 1003.7 |
| 20260505092013 | 69 | 166 | 9.0 | 17.0 | 0.00 | 0.00 | 0.00 | 85 | 1003.7 |
| 20260505091510 | 69 | 217 | 9.0 | 18.0 | 0.00 | 0.00 | 0.00 | 85 | 1003.7 |
| 20260505091009 | 69 | 185 | 10.0 | 18.0 | 0.00 | 0.00 | 0.00 | 84 | 1003.7 |
| 20260505090507 | 69 | 189 | 7.0 | 19.0 | 0.00 | 0.00 | 0.00 | 84 | 1003.8 |
| 20260505090037 | 70 | 188 | 8.0 | 19.0 | 0.00 | 0.00 | 0.00 | 84 | 1003.9 |
| 20260505085508 | 70 | 184 | 8.0 | 17.0 | 0.00 | 0.00 | 0.00 | 83 | 1004.0 |
| 20260505085009 | 70 | 160 | 8.0 | 18.0 | 0.00 | 0.00 | 0.00 | 83 | 1004.0 |
| 20260505084524 | 70 | 173 | 8.0 | 18.0 | 0.00 | 0.00 | 0.00 | 82 | 1004.0 |
| 20260505084012 | 70 | 200 | 8.0 | 19.0 | 0.00 | 0.00 | 0.00 | 82 | 1004.1 |
| 20260505083507 | 70 | 193 | 11.0 | 21.0 | 0.00 | 0.00 | 0.00 | 82 | 1004.1 |
| 20260505083013 | 70 | 167 | 11.0 | 23.0 | 0.00 | 0.00 | 0.00 | 81 | 1004.3 |
| 20260505082508 | 70 | 165 | 11.0 | 23.0 | 0.00 | 0.00 | 0.00 | 81 | 1004.3 |
| 20260505082006 | 70 | 196 | 10.0 | 17.0 | 0.00 | 0.00 | 0.00 | 81 | 1004.3 |
| 20260505081534 | 71 | 183 | 9.0 | 17.0 | 0.00 | 0.00 | 0.00 | 80 | 1004.2 |
| 20260505081007 | 71 | 160 | 11.0 | 18.0 | 0.00 | 0.00 | 0.00 | 80 | 1004.0 |
| 20260505080507 | 71 | 181 | 11.0 | 18.0 | 0.00 | 0.00 | 0.00 | 79 | 1004.0 |
| 20260505080042 | 71 | 176 | 8.0 | 18.0 | 0.00 | 0.00 | 0.00 | 79 | 1004.2 |
| 20260505075509 | 71 | 176 | 8.0 | 17.0 | 0.00 | 0.00 | 0.00 | 78 | 1004.1 |
| 20260505075008 | 71 | 197 | 10.0 | 20.0 | 0.00 | 0.00 | 0.00 | 78 | 1004.0 |
| 20260505074514 | 71 | 196 | 11.0 | 20.0 | 0.00 | 0.00 | 0.00 | 78 | 1004.1 |
| 20260505074008 | 71 | 202 | 11.0 | 19.0 | 0.00 | 0.00 | 0.00 | 78 | 1004.2 |
| 20260505073509 | 71 | 185 | 8.0 | 21.0 | 0.00 | 0.00 | 0.00 | 77 | 1004.3 |
| 20260505073022 | 71 | 169 | 12.0 | 21.0 | 0.00 | 0.00 | 0.00 | 78 | 1004.4 |
| 20260505072507 | 71 | 190 | 11.0 | 23.0 | 0.00 | 0.00 | 0.00 | 77 | 1004.5 |
| 20260505072008 | 71 | 179 | 12.0 | 23.0 | 0.00 | 0.00 | 0.00 | 77 | 1004.5 |
| 20260505071518 | 72 | 210 | 14.0 | 22.0 | 0.00 | 0.00 | 0.00 | 76 | 1004.7 |
| 20260505071006 | 72 | 199 | 13.0 | 20.0 | 0.00 | 0.00 | 0.00 | 76 | 1004.7 |
| 20260505070511 | 72 | 210 | 11.0 | 21.0 | 0.00 | 0.00 | 0.00 | 76 | 1004.9 |
| 20260505070026 | 72 | 175 | 11.0 | 21.0 | 0.00 | 0.00 | 0.00 | 76 | 1004.9 |
| 20260505065507 | 72 | 149 | 11.0 | 19.0 | 0.00 | 0.00 | 0.00 | 76 | 1005.0 |
| 20260505065011 | 72 | 167 | 10.0 | 19.0 | 0.00 | 0.00 | 0.00 | 75 | 1005.1 |
| 20260505064523 | 72 | 209 | 10.0 | 20.0 | 0.00 | 0.00 | 0.00 | 75 | 1005.2 |
| 20260505064013 | 72 | 170 | 11.0 | 22.0 | 0.00 | 0.00 | 0.00 | 75 | 1005.3 |
| 20260505063511 | 72 | 180 | 12.0 | 22.0 | 0.00 | 0.00 | 0.00 | 75 | 1005.3 |
| 20260505063023 | 72 | 198 | 9.0 | 19.0 | 0.00 | 0.00 | 0.00 | 75 | 1005.3 |
| 20260505062512 | 72 | 189 | 10.0 | 17.0 | 0.00 | 0.00 | 0.00 | 75 | 1005.4 |
| 20260505062012 | 72 | 196 | 10.0 | 18.0 | 0.00 | 0.00 | 0.00 | 75 | 1005.4 |
| 20260505061520 | 72 | 195 | 11.0 | 18.0 | 0.00 | 0.00 | 0.00 | 74 | 1005.5 |
| 20260505061006 | 72 | 177 | 11.0 | 21.0 | 0.00 | 0.00 | 0.00 | 74 | 1005.5 |
| 20260505060510 | 73 | 192 | 12.0 | 19.0 | 0.00 | 0.00 | 0.00 | 74 | 1005.5 |
| 20260505060024 | 73 | 185 | 12.0 | 19.0 | 0.00 | 0.00 | 0.00 | 73 | 1005.5 |
| 20260505055513 | 73 | 201 | 10.0 | 18.0 | 0.00 | 0.00 | 0.00 | 73 | 1005.6 |
| 20260505055013 | 73 | 204 | 12.0 | 19.0 | 0.00 | 0.00 | 0.00 | 73 | 1005.6 |
| 20260505054526 | 74 | 175 | 12.0 | 20.0 | 0.00 | 0.00 | 0.00 | 72 | 1005.5 |
| 20260505054011 | 74 | 195 | 10.0 | 20.0 | 0.00 | 0.00 | 0.00 | 72 | 1005.4 |
| 20260505053511 | 74 | 203 | 12.0 | 22.0 | 0.00 | 0.00 | 0.00 | 72 | 1005.3 |
| 20260505053026 | 74 | 188 | 12.0 | 23.0 | 0.00 | 0.00 | 0.00 | 71 | 1005.3 |
| 20260505052515 | 74 | 171 | 14.0 | 26.0 | 0.00 | 0.00 | 0.00 | 71 | 1005.3 |
| 20260505052013 | 74 | 191 | 11.0 | 26.0 | 0.00 | 0.00 | 0.00 | 71 | 1005.2 |
| 20260505051525 | 74 | 188 | 9.0 | 19.0 | 0.00 | 0.00 | 0.00 | 70 | 1005.3 |
| 20260505051011 | 74 | 205 | 8.0 | 21.0 | 0.00 | 0.00 | 0.00 | 70 | 1005.3 |
| 20260505050513 | 75 | 175 | 10.0 | 21.0 | 0.00 | 0.00 | 0.00 | 70 | 1005.2 |
| 20260505041521 | 75 | 188 | 10.0 | 19.0 | 0.00 | 0.00 | 0.00 | 70 | 1005.6 |
| 20260505041007 | 75 | 144 | 12.0 | 21.0 | 0.00 | 0.00 | 0.00 | 70 | 1005.6 |
| 20260505040503 | 75 | 217 | 9.0 | 21.0 | 0.00 | 0.00 | 0.00 | 70 | 1005.7 |